FW6209 Weather Reports


Display with metric or nautical units.
time (UTC)temp
F
wind
direction
speed
MPH
gust
MPH
rain 1hr
in
rain 24hr
in
rain mn
in
humidity
%
barometer
mb
20260503222334 64 234 3.0 10.0 0.00 0.02 0.02 65 1012.1
20260503221828 64 236 4.0 11.0 0.00 0.02 0.02 67 1012.1
20260503221322 64 233 5.0 11.0 0.00 0.02 0.02 67 1012.0
20260503220816 64 295 4.0 11.0 0.00 0.02 0.02 67 1012.0
20260503220311 64 248 3.0 10.0 0.00 0.02 0.02 67 1012.1
20260503215805 64 165 2.0 10.0 0.00 0.02 0.02 67 1012.2
20260503215258 64 240 1.0 13.0 0.00 0.02 0.02 67 1012.2
20260503214752 64 270 2.0 13.0 0.00 0.02 0.02 67 1012.2
20260503214246 64 240 5.0 13.0 0.00 0.02 0.02 66 1012.1
20260503213740 65 248 4.0 13.0 0.00 0.02 0.02 66 1012.3
20260503213236 64 235 2.0 12.0 0.00 0.02 0.02 68 1012.4
20260503212728 64 252 3.0 12.0 0.00 0.02 0.02 68 1012.4
20260503212448 63 252 4.0 12.0 0.00 0.02 0.02 68 1012.4
20260503211716 63 233 3.0 12.0 0.00 0.02 0.02 69 1012.6
20260503211210 63 242 4.0 12.0 0.00 0.02 0.02 69 1012.6
20260503210705 63 238 5.0 12.0 0.00 0.02 0.02 69 1012.5
20260503210419 63 239 5.0 12.0 0.00 0.02 0.02 69 1012.5
20260503205653 63 226 4.0 12.0 0.00 0.02 0.02 69 1012.6
20260503205146 63 256 4.0 12.0 0.00 0.02 0.02 68 1012.6
20260503205133 63 234 5.0 12.0 0.00 0.02 0.02 69 1012.6
20260503204134 63 220 4.0 10.0 0.00 0.02 0.02 71 1012.7
20260503203628 62 213 2.0 9.0 0.00 0.02 0.02 71 1012.7
20260503203123 62 239 3.0 11.0 0.00 0.02 0.02 70 1012.8
20260503202622 62 247 3.0 11.0 0.00 0.02 0.02 72 1012.8
20260503202122 62 266 3.0 12.0 0.00 0.02 0.02 73 1012.8
20260503201626 61 236 3.0 12.0 0.00 0.02 0.02 73 1012.9
20260503201120 61 238 2.0 7.0 0.00 0.02 0.02 73 1012.9
20260503200619 62 240 2.0 13.0 0.00 0.02 0.02 73 1013.0
20260503200120 61 239 4.0 13.0 0.00 0.02 0.02 73 1012.9
20260503195618 61 232 5.0 13.0 0.00 0.02 0.02 74 1013.0
20260503195117 61 257 6.0 13.0 0.00 0.02 0.02 73 1012.9
20260503194617 62 208 6.0 13.0 0.00 0.02 0.02 73 1012.9
20260503194117 62 229 3.0 11.0 0.00 0.02 0.02 75 1012.9
20260503193618 61 236 4.0 13.0 0.00 0.02 0.02 75 1013.2
20260503193112 61 240 5.0 13.0 0.00 0.02 0.02 77 1013.1
20260503192606 61 241 5.0 13.0 0.00 0.02 0.02 77 1013.2
20260503192100 61 248 4.0 13.0 0.00 0.02 0.02 76 1013.1
20260503191555 61 254 4.0 11.0 0.00 0.02 0.02 78 1013.2
20260503191048 61 187 5.0 11.0 0.00 0.02 0.02 78 1013.1
20260503190542 61 255 2.0 11.0 0.00 0.02 0.02 79 1013.2
20260503190037 61 256 1.0 7.0 0.00 0.02 0.02 78 1013.3
20260503185530 61 215 1.0 8.0 0.00 0.02 0.02 78 1013.3
20260503185025 61 246 1.0 8.0 0.00 0.02 0.02 79 1013.3
20260503184518 61 261 2.0 8.0 0.00 0.02 0.02 78 1013.3
20260503184012 61 138 1.0 8.0 0.00 0.02 0.02 78 1013.3
20260503183506 61 228 1.0 5.0 0.00 0.02 0.02 79 1013.3
20260503183001 61 252 1.0 5.0 0.00 0.02 0.02 80 1013.3
20260503182454 61 247 2.0 6.0 0.00 0.02 0.02 80 1013.3
20260503181948 61 244 1.0 6.0 0.00 0.02 0.02 81 1013.3
20260503181442 61 238 0.0 4.0 0.00 0.02 0.02 81 1013.3
20260503180936 61 234 0.0 2.0 0.00 0.02 0.02 83 1013.4
20260503180432 60 256 0.0 2.0 0.00 0.02 0.02 83 1013.6
20260503175924 60 264 0.0 2.0 0.00 0.02 0.02 85 1013.6
20260503175418 60 218 0.0 3.0 0.00 0.02 0.02 85 1013.6
20260503174912 59 211 0.0 3.0 0.00 0.02 0.02 85 1013.4
20260503174406 59 165 0.0 3.0 0.00 0.02 0.02 87 1013.6
20260503173900 59 252 0.0 3.0 0.00 0.02 0.02 86 1013.4
20260503173355 58 219 0.0 3.0 0.00 0.02 0.02 88 1013.4
20260503172848 58 157 0.0 7.0 0.00 0.02 0.02 87 1013.3
20260503172344 58 120 0.0 7.0 0.00 0.02 0.02 88 1013.3
20260503171836 58 170 1.0 7.0 0.00 0.02 0.02 87 1013.2
20260503171330 58 165 0.0 7.0 0.00 0.02 0.02 87 1013.2
20260503170824 58 130 0.0 4.0 0.00 0.02 0.02 89 1013.2
20260503170538 58 186 0.0 4.0 0.00 0.02 0.02 89 1013.3
20260503150600 55 229 0.0 3.0 0.00 0.02 0.02 96 1012.9
20260503131348 54 246 2.0 9.0 0.00 0.01 0.01 96 1011.9
20260503130842 54 214 2.0 8.0 0.00 0.01 0.01 96 1011.9
20260503130336 54 233 2.0 7.0 0.01 0.01 0.01 96 1011.9
20260503110113 56 242 0.0 3.0 0.00 0.00 0.00 96 1011.5
20260503090455 56 187 0.0 4.0 0.00 0.00 0.00 96 1011.7
20260503081434 56 98 0.0 4.0 0.00 0.00 0.00 95 1012.3
20260503080928 56 136 0.0 4.0 0.00 0.00 0.00 95 1012.4
20260503080422 56 158 0.0 4.0 0.00 0.00 0.00 95 1012.5
20260503072841 56 137 0.0 3.0 0.00 0.00 0.00 95 1012.7
20260503072334 56 190 0.0 3.0 0.00 0.00 0.00 94 1012.7
20260503071828 56 96 0.0 3.0 0.00 0.00 0.00 94 1012.7
20260503071323 56 147 0.0 3.0 0.00 0.00 0.00 94 1012.7
20260503070816 56 126 0.0 1.0 0.00 0.00 0.00 94 1012.7
20260503070311 56 120 0.0 2.0 0.00 0.00 0.00 94 1012.7
20260503060303 57 230 0.0 2.0 0.00 0.00 0.00 93 1012.5
20260503054802 57 224 0.0 2.0 0.00 0.00 0.00 93 1012.6
20260503054303 57 247 0.0 2.0 0.00 0.00 0.00 93 1012.4
20260503053803 57 175 0.0 2.0 0.00 0.00 0.00 93 1012.3
20260503053304 56 210 0.0 1.0 0.00 0.00 0.00 93 1012.2
20260503052759 56 245 0.0 1.0 0.00 0.00 0.00 93 1012.2
20260503052258 56 218 0.0 1.0 0.00 0.00 0.00 93 1011.9
20260503051759 56 259 0.0 2.0 0.00 0.00 0.00 93 1011.8
20260503051258 56 259 0.0 2.0 0.00 0.00 0.00 93 1011.9
20260503050849 56 247 0.0 0.0 0.00 0.00 0.00 93 1011.6
20260503050759 56 248 0.0 2.0 0.00 0.00 0.00 93 1012.0
20260503050614 56 247 0.0 0.0 0.00 0.00 0.00 93 1011.6
20260503050524 56 249 0.0 2.0 0.00 0.00 0.00 93 1011.9
20260503050406 56 236 0.0 0.0 0.00 0.00 0.00 93 1011.7
20260503050248 56 247 0.0 0.0 0.00 0.00 0.00 93 1011.8
20260503044253 56 247 0.0 0.0 0.00 0.00 0.00 93 1011.6
20260503043739 56 234 0.0 0.0 0.00 0.00 0.00 92 1011.5
20260503043237 56 319 0.0 0.0 0.00 0.00 0.00 92 1011.4
20260503042739 56 9 0.0 0.0 0.00 0.00 0.00 91 1011.1
20260503042238 56 40 0.0 0.0 0.00 0.00 0.00 91 1011.0
20260503041738 57 40 0.0 0.0 0.00 0.00 0.00 90 1010.8
20260503041238 57 164 0.0 0.0 0.00 0.00 0.00 90 1010.7
20260503040739 57 164 0.0 0.0 0.00 0.00 0.00 90 1010.8
20260503040238 57 164 0.0 0.0 0.00 0.00 0.00 90 1010.8
20260503035740 57 164 0.0 0.0 0.00 0.00 0.00 89 1010.7
20260503035235 58 164 0.0 0.0 0.00 0.00 0.00 89 1010.7
20260503034734 58 164 0.0 0.0 0.00 0.00 0.00 89 1010.7
20260503034234 58 164 0.0 0.0 0.00 0.00 0.00 89 1010.8
20260503033735 58 164 0.0 0.0 0.00 0.00 0.00 88 1010.7
20260503033234 58 164 0.0 0.0 0.00 0.00 0.00 88 1010.7
20260503032737 58 164 0.0 0.0 0.00 0.00 0.00 88 1010.6
20260503032234 58 164 0.0 0.0 0.00 0.00 0.00 88 1010.6
20260503031734 58 164 0.0 0.0 0.00 0.00 0.00 88 1010.5
20260503031234 59 164 0.0 0.0 0.00 0.00 0.00 87 1010.5
20260503030735 59 38 0.0 0.0 0.00 0.00 0.00 87 1010.4
20260503030233 59 38 0.0 0.0 0.00 0.00 0.00 87 1010.3
20260503025735 59 38 0.0 0.0 0.00 0.00 0.00 86 1010.2
20260503025235 60 38 0.0 0.0 0.00 0.00 0.00 85 1010.3
20260503024734 60 38 0.0 0.0 0.00 0.00 0.00 85 1010.2
20260503024234 60 38 0.0 0.0 0.00 0.00 0.00 84 1010.2
20260503023735 61 38 0.0 0.0 0.00 0.00 0.00 84 1010.2
20260503023235 61 339 0.0 0.0 0.00 0.00 0.00 83 1010.2
20260503022734 62 339 0.0 0.0 0.00 0.00 0.00 82 1010.2
20260503022235 62 339 0.0 2.0 0.00 0.00 0.00 82 1010.1
20260503021736 62 210 0.0 2.0 0.00 0.00 0.00 81 1010.1
20260503021235 63 209 0.0 2.0 0.00 0.00 0.00 81 1010.1
20260503020956 63 227 0.0 2.0 0.00 0.00 0.00 80 1009.9
20260503020234 63 171 0.0 2.0 0.00 0.00 0.00 79 1010.0
20260503015737 64 159 0.0 1.0 0.00 0.00 0.00 79 1010.1
20260503015245 64 252 0.0 1.0 0.00 0.00 0.00 78 1009.8
20260503015236 64 185 0.0 1.0 0.00 0.00 0.00 79 1010.0
20260503015135 64 249 0.0 1.0 0.00 0.00 0.00 79 1009.9
20260503013734 64 278 0.0 0.0 0.00 0.00 0.00 78 1009.9
20260503013233 65 348 0.0 0.0 0.00 0.00 0.00 77 1009.8
20260503012734 65 5 0.0 0.0 0.00 0.00 0.00 76 1009.8
20260503012500 65 330 0.0 2.0 0.00 0.00 0.00 75 1009.8
20260503011735 66 0 0.0 2.0 0.00 0.00 0.00 74 1009.9
20260503011233 67 22 0.0 2.0 0.00 0.00 0.00 74 1009.8
20260503010735 67 28 0.0 2.0 0.00 0.00 0.00 72 1009.9
20260503010235 68 348 0.0 2.0 0.00 0.00 0.00 71 1010.0
20260503005955 69 5 0.0 2.0 0.00 0.00 0.00 70 1009.9
20260503005232 69 10 0.0 2.0 0.00 0.00 0.00 69 1009.8
20260503004733 70 205 0.0 4.0 0.00 0.00 0.00 68 1009.8
20260503004229 70 273 0.0 4.0 0.00 0.00 0.00 68 1009.9
20260503003730 70 85 0.0 4.0 0.00 0.00 0.00 67 1010.1
20260503003231 71 193 0.0 4.0 0.00 0.00 0.00 67 1009.9
20260503002730 71 216 0.0 3.0 0.00 0.00 0.00 67 1009.9
20260503002453 71 156 1.0 4.0 0.00 0.00 0.00 67 1009.9
20260503001728 71 222 1.0 8.0 0.00 0.00 0.00 67 1010.0
20260503001712 71 238 1.0 8.0 0.00 0.00 0.00 67 1010.0
20260503000721 71 244 1.0 8.0 0.00 0.00 0.00 67 1010.1
20260503000442 71 246 2.0 8.0 0.00 0.00 0.00 67 1009.9
20260502235718 71 261 1.0 7.0 0.00 0.00 0.00 66 1009.9
20260502235446 71 290 1.0 4.0 0.00 0.00 0.00 66 1009.8
20260502234718 71 255 0.0 6.0 0.00 0.00 0.00 66 1009.8
20260502234219 71 290 0.0 6.0 0.00 0.00 0.00 66 1009.9
20260502234202 71 19 1.0 6.0 0.00 0.00 0.00 66 1010.0
20260502233217 71 194 1.0 6.0 0.00 0.00 0.00 66 1009.9
20260502232713 72 167 0.0 6.0 0.00 0.00 0.00 65 1010.1
20260502232214 72 188 0.0 6.0 0.00 0.00 0.00 65 1010.0
20260502231714 72 203 1.0 6.0 0.00 0.00 0.00 65 1010.0
20260502231214 72 113 1.0 6.0 0.00 0.00 0.00 65 1009.8
20260502230715 72 175 0.0 5.0 0.00 0.00 0.00 65 1010.0
20260502230215 72 126 2.0 8.0 0.00 0.00 0.00 65 1010.0
20260502225717 71 257 2.0 8.0 0.00 0.00 0.00 65 1010.1
20260502225212 72 230 2.0 9.0 0.00 0.00 0.00 65 1010.1
20260502224933 72 241 2.0 10.0 0.00 0.00 0.00 64 1010.2
20260502224211 72 264 2.0 10.0 0.00 0.00 0.00 65 1010.3
20260502223709 72 210 3.0 10.0 0.00 0.00 0.00 66 1010.5
20260502223208 72 221 4.0 10.0 0.00 0.00 0.00 66 1010.5
20260502222705 72 225 4.0 11.0 0.00 0.00 0.00 65 1010.6
20260502222438 72 254 3.0 11.0 0.00 0.00 0.00 65 1010.6